Location: Guayaquil
(2.1667°S, 79.9000°W)
Time: 01:26:29
(UTC-05:00)

Hubble Space Telescope - Visible Passes

Search period start: 27 April 2018 00:00
Search period end: 07 May 2018 00:00
Orbit: 537 x 541 km, 28.5° (Epoch: 26 April)

Date Brightness Start Highest point End Pass type
(mag) Time Alt. Az. Time Alt. Az. Time Alt. Az.
27 Apr 1.3 04:49:58 45° S 04:49:58 45° S 04:53:24 10° SE visible
28 Apr 2.5 04:40:59 23° SSE 04:40:59 23° SSE 04:42:53 10° SE visible
29 Apr 3.4 04:31:55 12° SSE 04:31:55 12° SSE 04:32:16 10° SSE visible
